EDT,Max TemperatureF,Mean TemperatureF,Min TemperatureF,Max Dew PointF,MeanDew PointF,Min DewpointF,Max Humidity, Mean Humidity, Min Humidity, Max Sea Level PressureIn, Mean Sea Level PressureIn, Min Sea Level PressureIn, Max VisibilityMiles, Mean VisibilityMiles, Min VisibilityMiles, Max Wind SpeedMPH, Mean Wind SpeedMPH, Max Gust SpeedMPH,PrecipitationIn, CloudCover, Events, WindDirDegrees
2013-7-1,83,77,70,71,69,67,97,80,63,29.97,29.90,29.84,10,9,5,15,5,20,T,5,Rain,151
2013-7-2,84,78,71,71,69,68,93,79,65,30.15,30.07,29.98,10,10,9,17,6,23,0.02,4,,164
2013-7-3,83,77,71,73,71,68,90,80,69,30.24,30.19,30.14,10,10,2,10,3,14,0.08,4,Rain,170
2013-7-4,88,78,68,72,70,67,97,76,55,30.24,30.20,30.16,10,10,6,17,5,24,0.00,2,,174
2013-7-5,90,80,69,71,69,67,97,75,52,30.21,30.17,30.12,10,10,7,15,7,23,0.00,1,,183
2013-7-6,91,80,69,70,69,67,97,72,47,30.19,30.14,30.06,10,10,10,13,5,17,0.00,1,,185
2013-7-7,89,79,69,71,68,66,100,78,55,30.11,30.07,30.01,10,8,1,32,4,40,0.66,3,Rain,206
2013-7-8,85,75,65,68,66,63,97,73,48,30.12,30.09,30.05,10,9,2,14,4,22,0.01,1,,244
2013-7-9,86,78,70,72,68,65,90,75,59,30.14,30.08,30.00,10,8,1,13,4,16,0.12,4,Rain,190
2013-7-10,85,78,70,73,69,65,87,73,58,30.02,29.95,29.86,10,9,1,28,5,37,0.35,3,Rain,212
2013-7-11,84,77,70,67,65,61,84,69,54,29.96,29.92,29.86,10,10,8,14,5,17,T,4,Rain,336
2013-7-12,77,71,65,66,64,60,93,79,64,30.09,30.02,29.94,10,10,4,13,6,18,0.40,7,Rain,4
2013-7-13,83,76,68,71,67,64,93,78,62,30.27,30.16,30.07,10,9,3,9,3,14,0.01,7,Rain,323
2013-7-14,89,79,68,72,69,66,100,77,53,30.35,30.31,30.28,10,6,0,14,4,18,0.01,2,Fog,177
2013-7-15,93,80,67,72,69,66,100,74,47,30.32,30.28,30.22,10,10,5,12,3,15,0.00,1,,313
2013-7-16,94,83,71,75,70,65,93,66,39,30.30,30.24,30.20,10,10,2,13,4,22,0.02,4,Rain,340
2013-7-17,94,83,72,73,70,67,93,67,41,30.25,30.19,30.11,10,10,7,13,4,23,0.00,2,,351
2013-7-18,95,84,73,74,72,70,93,70,46,30.15,30.09,30.02,10,8,2,9,4,13,0.00,0,,258
2013-7-19,96,84,72,74,71,65,94,70,45,30.02,29.97,29.88,10,8,5,23,5,31,0.00,1,,230
2013-7-20,94,82,70,72,68,66,84,63,41,29.91,29.87,29.81,10,10,8,22,6,29,T,0,,230
2013-7-21,87,79,70,73,68,65,94,75,55,29.98,29.94,29.91,10,8,1,14,3,22,0.18,2,Rain,137
2013-7-22,87,78,69,75,70,68,100,79,57,29.95,29.89,29.78,10,5,0,12,2,22,0.78,6,Fog-Rain,164
2013-7-23,86,78,70,72,68,61,93,71,48,29.79,29.74,29.68,10,8,1,20,6,24,0.04,5,Rain,261
2013-7-24,82,74,65,65,60,53,93,68,42,29.96,29.82,29.72,10,10,9,16,7,23,0.00,1,,323
2013-7-25,78,68,58,56,52,49,78,59,39,30.07,30.02,29.95,10,10,10,13,6,16,0.00,0,,5
2013-7-26,82,68,53,59,56,52,93,66,39,30.12,30.07,30.03,10,10,8,9,1,13,0.00,0,,252
2013-7-27,81,70,59,70,64,57,97,80,62,30.04,29.98,29.92,10,9,5,13,2,21,0.07,3,Rain,176
2013-7-28,83,73,63,68,65,61,93,70,47,30.01,29.93,29.88,10,7,1,14,2,18,0.39,5,Rain,184
2013-7-29,80,68,55,58,54,51,93,66,39,30.19,30.11,30.02,10,10,9,13,5,20,0.00,2,,275
2013-7-30,82,69,56,61,56,53,93,66,39,30.25,30.19,30.15,10,10,8,12,2,32,0.00,2,,241
2013-7-31,79,70,61,66,62,59,93,78,62,30.17,30.10,30.01,10,9,6,17,2,24,T,3,Rain,157